Weather History for Sault Ste Marie, MI

Change the Weather History Date:

Wednesday, February 20, 2013

  Actual Average Record
Temperature  
Mean Temperature 6 °F 19 °F  
Max Temperature 11 °F 27 °F 47 °F (1983)
Min Temperature 1 °F 10 °F -27 °F (1934)
Degree Days  
Heating Degree Days 59 46  
Month to date heating degree days 1025 964  
Since 1 July heating degree days 5408 5764  
Moisture  
Dew Point -3 °F    
Average Humidity 69    
Maximum Humidity 76    
Minimum Humidity 62    
Precipitation  
Precipitation T in 0.04 in 0.72 in (1953)
Month to date precipitation 2.44 0.95  
Year to date precipitation 5.73 3.14  
Snow  
Snow 0.30 in 0.60 in 6.20 in (1928)
Month to date snowfall 27.1 14.1  
Since 1 July snowfall 116.5 95.7  
Snow Depth 27.00 in    
Sea Level Pressure  
Sea Level Pressure 30.07 in    
Wind  
Wind Speed 14 mph (NNW)    
Max Wind Speed 21 mph    
Max Gust Speed 29 mph    
Visibility 8 miles    
Events Snow    
T = Trace of Precipitation, MM = Missing Value Source: NWS Daily Summary

Daily Weather History Graph

Daily Weather History Graph

Search for Another Location

Airport:

Trip Planner

Search our weather history database for the weather conditions in past years. The results will help you decide how hot, cold, wet, or windy it might be!

Date:

Astronomy

Feb. 20, 2013 Rise Set
Actual Time 7:32 AM EST 6:10 PM EST
Civil Twilight 7:01 AM EST 6:41 PM EST
Nautical Twilight 6:26 AM EST 7:16 PM EST
Astronomical Twilight 5:51 AM EST 7:51 PM EST
Moon 1:20 PM EST (2/20) 4:02 AM EST (2/20)
Length of Visible Light 11h 39m
Length of Day
10h 38m
Waxing Gibbous, 76% of the Moon is Illuminated
Feb 20
Waxing Gibbous
Feb 25
Full
Mar 4
Last Quarter
Mar 11
New
Mar 19
First Quarter

Hourly Weather History & Observations

Time (EST) Temp. Windchill Dew Point Humidity Pressure Visibility Wind Dir Wind Speed Gust Speed Precip Events Conditions
12:14 AM 7.0 °F -11.0 °F -0.9 °F 70% 29.77 in 2.0 mi NNW 16.1 mph 28.8 mph 0.00 in Snow Light Snow
12:19 AM 7.0 °F -10.4 °F -0.9 °F 70% 29.77 in 1.8 mi NNW 15.0 mph 24.2 mph 0.00 in Snow Light Snow
12:40 AM 7.0 °F -9.8 °F -0.9 °F 70% 29.78 in 2.5 mi NNW 13.8 mph 24.2 mph 0.00 in Snow Light Snow
12:51 AM 6.8 °F -11.8 °F -0.4 °F 72% 29.79 in 3.0 mi NNW 17.3 mph 25.3 mph 0.00 in Snow Light Snow
12:55 AM 7.0 °F -11.0 °F -0.9 °F 70% 29.82 in 3.0 mi NNW 16.1 mph 23.0 mph 0.00 in Snow Light Snow
1:13 AM 7.0 °F -9.8 °F -0.9 °F 70% 29.79 in 3.0 mi NNW 13.8 mph 24.2 mph 0.00 in Snow Light Snow
1:26 AM 7.0 °F -10.4 °F -0.9 °F 70% 29.80 in 6.0 mi NNW 15.0 mph 21.9 mph 0.00 in   Overcast
1:55 AM 7.0 °F -12.6 °F -2.0 °F 67% 29.85 in 10.0 mi NNW 19.6 mph 26.5 mph 0.00 in   Overcast
2:55 AM 7.0 °F -11.6 °F -2.9 °F 64% 29.89 in 6.0 mi NNW 17.3 mph 21.9 mph 0.00 in Snow Light Snow
3:55 AM 6.1 °F -11.6 °F -2.0 °F 69% 29.91 in 4.0 mi NNW 15.0 mph 21.9 mph 0.00 in Snow Light Snow
4:55 AM 5.0 °F -12.3 °F -2.9 °F 70% 29.95 in 8.0 mi NNW 13.8 mph 20.7 mph 0.00 in   Overcast
5:55 AM 3.0 °F -15.5 °F -6.0 °F 66% 29.99 in 10.0 mi NNW 15.0 mph 21.9 mph 0.00 in   Scattered Clouds
6:55 AM 1.9 °F -18.7 °F -8.0 °F 63% 30.02 in 10.0 mi NNW 18.4 mph 26.5 mph N/A   Mostly Cloudy
7:55 AM 1.0 °F -17.3 °F -9.0 °F 63% 30.07 in 10.0 mi NNW 13.8 mph 20.7 mph N/A   Overcast
8:55 AM 1.0 °F -17.3 °F -9.9 °F 60% 30.10 in 10.0 mi NNW 13.8 mph - N/A   Mostly Cloudy
9:43 AM 1.9 °F -11.8 °F -8.0 °F 63% 30.07 in 10.0 mi North 8.1 mph - N/A   Mostly Cloudy
9:55 AM 1.9 °F -14.7 °F -8.0 °F 63% 30.12 in 10.0 mi NNW 11.5 mph 17.3 mph N/A   Scattered Clouds
10:55 AM 1.9 °F -15.5 °F -9.0 °F 60% 30.13 in 10.0 mi NNW 12.7 mph - N/A   Mostly Cloudy
11:03 AM 3.0 °F -14.1 °F -9.0 °F 57% 30.09 in 10.0 mi NNW 12.7 mph 21.9 mph N/A   Scattered Clouds
11:55 AM 5.0 °F -10.0 °F -6.0 °F 61% 30.15 in 10.0 mi NNW 10.4 mph - N/A   Clear
12:55 PM 7.0 °F -9.8 °F -4.0 °F 61% 30.14 in 10.0 mi NW 13.8 mph - N/A   Clear
1:55 PM 9.0 °F -7.3 °F -2.0 °F 61% 30.14 in 10.0 mi NW 13.8 mph - N/A   Clear
2:55 PM 10.0 °F -5.2 °F -0.0 °F 64% 30.14 in 10.0 mi NW 12.7 mph - N/A   Partly Cloudy
3:09 PM 10.0 °F -3.7 °F 1.0 °F 67% 30.10 in 10.0 mi NW 10.4 mph 19.6 mph N/A   Mostly Cloudy
3:48 PM 10.0 °F -3.7 °F -0.0 °F 64% 30.11 in 10.0 mi NW 10.4 mph - N/A   Scattered Clouds
3:55 PM 10.9 °F -3.4 °F 1.0 °F 64% 30.16 in 10.0 mi NW 11.5 mph - N/A   Scattered Clouds
4:55 PM 10.0 °F -5.9 °F -0.0 °F 64% 30.18 in 10.0 mi WNW 13.8 mph 19.6 mph N/A   Scattered Clouds
5:55 PM 10.0 °F -3.7 °F -0.0 °F 64% 30.21 in 10.0 mi NW 10.4 mph - N/A   Clear
6:55 PM 9.0 °F -4.2 °F -2.0 °F 61% 30.25 in 10.0 mi NNW 9.2 mph - N/A   Clear
7:55 PM 8.1 °F -7.7 °F -2.9 °F 61% 30.28 in 10.0 mi NNW 12.7 mph 19.6 mph N/A   Clear
8:55 PM 7.0 °F -7.5 °F -4.0 °F 61% 30.31 in 10.0 mi NNW 10.4 mph 19.6 mph N/A   Mostly Cloudy
9:24 PM 6.1 °F -9.5 °F -4.0 °F 63% 30.26 in 10.0 mi North 11.5 mph 19.6 mph N/A   Overcast
9:55 PM 6.1 °F -9.5 °F -2.9 °F 67% 30.32 in 10.0 mi North 11.5 mph 25.3 mph N/A   Overcast
10:55 PM 5.0 °F -13.0 °F -4.0 °F 66% 30.33 in 10.0 mi NNW 15.0 mph 23.0 mph N/A   Overcast
11:55 PM 3.9 °F -13.7 °F -5.1 °F 66% 30.33 in 10.0 mi NNW 13.8 mph 20.7 mph N/A   Overcast